Weather in Khamitovo

Russia / Republic of Bashkortostan     53°30′15″N   57°59′17″E
temp.,
°C
wind,
m/s
gust,
m/s
humid.,
%
clouds,
%
prec.,
mm/h
press.,
hPa
HPBL,
m
28 july, wed
wed2823:00+13sw2266100 0.0 101449
02:00+10wsw11851 0.0 101313
05:00+8w119552 0.0 101310
08:00+13w138184 0.0 1012257
11:00+18nw564843 0.0 10111872
14:00+17nw564543 0.0 10111819
17:00+18nw56365 0.0 10111891
20:00+14nnw37542 0.0 1013503
29 july, thu
thu2923:00+8nne11780 0.0 101510
02:00+7wsw00820 0.0 101610
05:00+6sw11840 0.0 101610
08:00+12wsw12611 0.0 1015222
11:00+17w46424 0.0 10141621
14:00+20wnw46325 0.0 10132156
17:00+21wnw47305 0.0 10122390
20:00+16wnw1157100 0.0 101211
30 july, fri
fri3023:00+13s1154100 0.0 101212
02:00+14s1152100 0.0 101114
05:00+11ssw2378100 0.3 101056
08:00+11se2596100 3.8 1010200
11:00+16sw4136894 4.1 1007914
14:00+23w61348100 0.1 10052409
17:00+21wnw5117234 0.6 10061244
20:00+18wnw4108148 0.2 1008878
31 july, sat
sat3123:00+16wsw2589100 0.2 1009115
02:00+13w1196100 0.0 101013
05:00+12ssw1197100 0.0 101013
08:00+17sw128493 0.0 1011201
11:00+23wsw35565 0.0 10101138
14:00+25w3651100 0.8 10092093
17:00+25wsw374692 0.8 10081499
20:00+19w61182100 0.7 1010615
1 august, sun
sun123:00+16se1196100 2.2 101014
02:00+16ssw2295100 2.0 100922
05:00+15sw1197100 3.3 101036
08:00+17w24931 0.0 1010199
11:00+22wnw47600 0.0 10101254
14:00+24nw5748100 0.0 10111991
17:00+23nnw3650100 0.0 10121849
20:00+19wsw11685 0.0 101311